Yuma MCAS, AZ

4:14 AM MST on November 21, 2017 (GMT -0700)
Yuma Marine Corps Air Station

Weather History for KNYL - November, 2011

Change the Weather History Date:

Friday, November 25, 2011

  Actual Average Record
Temperature  
Mean Temperature 62 °F 62 °F  
Max Temperature 75 °F 73 °F 90 °F (1950)
Min Temperature 48 °F 50 °F 31 °F (1906)
Degree Days  
Heating Degree Days 3 4  
Month to date heating degree days 51 42  
Since 1 July heating degree days 51 44  
Cooling Degree Days 0 1  
Month to date cooling degree days 19 84  
Year to date cooling degree days 4683 4646  
Growing Degree Days 12 (Base 50)    
Moisture  
Dew Point 39 °F    
Average Humidity 48    
Maximum Humidity 71    
Minimum Humidity 25    
Precipitation  
Precipitation 0.00 in 0.01 in 0.27 in (1985)
Month to date precipitation 0.42 0.16  
Year to date precipitation 1.84 2.99  
Sea Level Pressure  
Sea Level Pressure 30.09 in    
Wind  
Wind Speed 4 mph (West)    
Max Wind Speed 12 mph    
Max Gust Speed 14 mph    
Visibility 10 miles    
Events      
T = Trace of Precipitation, MM = Missing Value Source: NWS Daily Summary

Daily Weather History Graph

Daily Weather History Graph

Search for Another Location

Airport or City:

Trip Planner

Search our weather history database for the weather conditions in past years. The results will help you decide how hot, cold, wet, or windy it might be!

Date:

Astronomy

Nov. 25, 2011 Rise Set
Actual Time 7:17 AM MST 5:33 PM MST
Civil Twilight 6:50 AM MST 5:59 PM MST
Nautical Twilight 6:20 AM MST 6:30 PM MST
Astronomical Twilight 5:50 AM MST 6:59 PM MST
Moon 7:46 AM MST (11/25) 6:08 PM MST (11/25)
Length of Visible Light 11h 09m
Length of Day
10h 16m
New Moon, 0% of the Moon is Illuminated
Nov 25
New Moon
Dec 2
First Quarter
Dec 10
Full
Dec 17
Last Quarter
Dec 24
New

Hourly Weather History & Observations

Time (MST) Temp. Dew Point Humidity Pressure Visibility Wind Dir Wind Speed Gust Speed Precip Events Conditions
12:55 AM 54.0 °F 39.9 °F 59% 30.01 in 10.0 mi Calm Calm - N/A   Clear
1:55 AM 54.0 °F 39.9 °F 59% 30.01 in 10.0 mi Calm Calm - N/A   Clear
2:00 AM - - N/A% - - North - - N/A   Unknown
2:55 AM 53.1 °F 39.0 °F 59% 30.02 in 10.0 mi West 3.5 mph - N/A   Clear
3:55 AM 51.1 °F 39.0 °F 63% 30.02 in 10.0 mi WSW 3.5 mph - N/A   Clear
4:25 AM - - N/A% - - North - - N/A   Unknown
4:55 AM 50.0 °F 39.0 °F 66% 30.03 in 10.0 mi Calm Calm - N/A   Clear
5:00 AM - - N/A% - - North - - N/A   Unknown
5:55 AM 50.0 °F 41.0 °F 71% 30.04 in 10.0 mi SSE 3.5 mph - N/A   Clear
6:55 AM 51.1 °F 42.1 °F 71% 30.06 in 10.0 mi NNW 6.9 mph - N/A   Clear
8:55 AM 55.0 °F 43.0 °F 64% 30.12 in 10.0 mi Calm Calm - N/A   Clear
9:55 AM 60.1 °F 43.0 °F 53% 30.13 in 10.0 mi Calm Calm - N/A   Clear
11:55 AM 66.9 °F 42.1 °F 40% 30.14 in 10.0 mi West 6.9 mph - N/A   Clear
12:55 PM 70.0 °F 39.0 °F 32% 30.12 in 10.0 mi WSW 3.5 mph - N/A   Clear
1:55 PM 72.0 °F 37.0 °F 28% 30.10 in 10.0 mi WSW 8.1 mph - N/A   Clear
2:55 PM 75.0 °F 37.0 °F 25% 30.08 in 10.0 mi NW 9.2 mph - N/A   Clear
3:55 PM 73.9 °F 37.0 °F 26% 30.08 in 10.0 mi WNW 9.2 mph - N/A   Clear
4:55 PM 73.0 °F 37.0 °F 27% 30.07 in 10.0 mi West 9.2 mph - N/A   Clear
5:55 PM 68.0 °F 39.0 °F 35% 30.08 in 10.0 mi West 9.2 mph - N/A   Clear
6:55 PM 64.0 °F 39.0 °F 40% 30.11 in 10.0 mi SW 4.6 mph - N/A   Clear
7:55 PM 64.0 °F 37.0 °F 37% 30.13 in 10.0 mi WNW 5.8 mph - N/A   Clear
8:55 PM 61.0 °F 37.9 °F 42% 30.15 in 10.0 mi WNW 4.6 mph - N/A   Clear
9:55 PM 57.9 °F 39.9 °F 51% 30.17 in 10.0 mi South 3.5 mph - N/A   Clear
10:55 PM 55.9 °F 39.9 °F 55% 30.18 in 10.0 mi Calm Calm - N/A   Clear
11:55 PM 55.9 °F 37.9 °F 51% 30.19 in 10.0 mi Calm Calm - N/A   Clear